Location: Banska Bystrica
(48.7330°N, 19.1500°E)
Time: 21:55:04
(UTC+02:00)

ISS - Pass Details

Date: 25 March 2019
Orbit: 408 x 410 km, 51.6° (Epoch: 24 April)

Event Time Altitude Azimuth Distance (km) Brightness Sun altitude
Rises 20:13:58 0° 264° (W) 2,333 0.9 -21.3°
Reaches altitude 10° 20:16:05 10° 268° (W) 1,473 -0.2 -21.6°
Enters shadow 20:19:03 54° 322° (NW) 501 -3.2 -22.0°
